User: anonymous   Login
Location: Goheenville
(40.9070°N, 79.3720°W)
Time: 16:44:15
(UTC-04:00)
Language:

NOAA 11 - Orbit

View from above orbital plane
View from above orbital plane
View from above satellite
View from above satellite

Ground track
Ground track

The orbit data is extracted from the following two-line orbital elements,

1 19531U 88089A   16146.25466396 -.00000033  00000-0  45925-5 0  9998
2 19531  98.6031 213.4374 0012308  73.3802 286.8722 14.15187120427883
Epoch (UTC): 25 May 2016 06:06:42
Eccentricity: 0.0012308
inclination: 98.6031°
perigee height: 833 km
apogee height: 850 km
right ascension of ascending node: 213.4374°
argument of perigee: 73.3802°
revolutions per day: 14.15187120
mean anomaly at epoch: 286.8722°
orbit number at epoch: 42788

The dashed part of the orbit path shows where the satellite is in the earth's shadow,  

DLR